Regional Weather Roundup
Issued by NWS

Home | Current Version | Previous Version | Text Only | Print | Product List | Glossary On
Versions: 1 2 3 4 5 6 7 8 9 10 11 12 13 14 15 16 17 18 19 20 21 22 23 24 25 26 27 28 29 30 31 32 33 34 35 36 37 38 39 40 41 42 43 44 45 46 47 48 49 50
000
ASUS43 KTOP 260508
RWRKS

WEATHER ROUNDUP FOR KANSAS
NATIONAL WEATHER SERVICE GOODLAND KS
1200 AM CDT SUN APR 26 2015

NOTE:  "FAIR" INDICATES FEW OR NO CLOUDS BELOW 12,000 FEET WITH NO
SIGNIFICANT WEATHER AND/OR OBSTRUCTIONS TO VISIBILITY.

KSZ001>006-013>018-027>032-041>047-260600-
NORTHWEST KANSAS

CITY           SKY/WX    TMP DP  RH WIND       PRES   REMARKS
GOODLAND       CLOUDY    52  50  93 E21       29.78S
HAYS           CLOUDY    50  43  76 NE18      29.82S
HILL CITY      CLOUDY    50  47  89 E14       29.83R
RUSSELL        CLOUDY    51  49  92 NE15      29.80S
$$

KSZ061>065-074>080-084>089-260600-
SOUTHWEST KANSAS

CITY           SKY/WX    TMP DP  RH WIND       PRES   REMARKS
DODGE CITY     MOCLDY    55  51  86 E17G26    29.76R
ELKHART          N/A     56  35  45 E14         N/A
GARDEN CITY    PTCLDY    54  50  86 E20       29.74R
GREAT BEND     CLOUDY    54  46  76 NE16      29.79S
LIBERAL        PTCLDY    61  46  59 E18G26    29.72R
$$

KSZ066>073-081>083-090>101-260600-
SOUTHEAST KANSAS

CITY           SKY/WX    TMP DP  RH WIND       PRES   REMARKS
CHANUTE        CLOUDY    55  51  86 N10       29.78R
COFFEYVILLE    CLOUDY    58  54  86 N9        29.76R
HUTCHINSON     CLOUDY    54  49  83 NE15G22   29.78R
MEDICINE LODGE   N/A     57  54  89 NE12      29.74R
NEWTON         CLOUDY    52  46  82 NE14      29.81R
PARSONS        CLOUDY    58  53  84 N12G18    29.77R
WICHITA INTL   CLOUDY    57  51  80 NE17G24   29.76R
WICHITA JABRA  CLOUDY    53  50  89 NE16G26   29.76S
WICHITA MCCONL CLOUDY    56  51  84 NE13      29.76
WINFIELD       CLEAR     56  52  86 NE8       29.77R
$$

KSZ007>012-019>026-033>040-048>060-102>105-260600-
NORTHEAST KANSAS

CITY           SKY/WX    TMP DP  RH WIND       PRES   REMARKS
CONCORDIA      CLOUDY    49  46  90 E10       29.85R
EMPORIA        CLOUDY    50  47  89 NE14      29.81R
LAWRENCE       CLOUDY    50  46  86 N6        29.82R
MANHATTAN      CLOUDY    50  48  93 NE10      29.84R FOG
MARYSVILLE     CLOUDY    48  45  87 E8        29.85S
OLATHE IND     CLOUDY    49  47  93 N8        29.81R
OLATHE EXE     CLOUDY    50  48  93 NE7       29.80R
SALINA         CLOUDY    52  47  83 NE13      29.84R
TOPEKA BILLARD CLOUDY    50  46  86 N6        29.83R
TOPEKA FORBES  CLOUDY    50  47  89 N7        29.82R
$$



USA.gov is the U.S. government's official web portal to all federal, state and local government web resources and services.